Flag for Canada Weather past 2 weeks in Burnaby, British Columbia, Canada

Now
57 °F

Drizzle. Low clouds.


Feels Like: 55 °F
Forecast: 53 / 59 °F
Wind: 9 mph from Southeast

Location: Vancouver International Air-Port

Current Time: Oct 20, 2014 at 3:08:08 AM

Latest Report: Oct 20, 2014 at 2:00 AM


Visibility: 15 mi

Pressure: 29.67 "Hg

Humidity: 94%

Dew point: 55 °F

Location of BurnabyLocation

Historic Weather in Burnaby — Graph

°F

Burnaby temperature yesterday

Maximum temperature yesterday: 68 °F (at 12:00 PM)
Minimum temperature yesterday: 57 °F (at 5:00 AM)
Average temperature yesterday: 62 °F

Past Weeks' High & Low Weather Summary

 TemperatureHumidityPressure
High68 °F (Oct 19, 12:00 PM)100% (Oct 5, 2:00 AM)30.22 "Hg (Oct 5, 2:00 AM)
Low48 °F (Oct 12, 6:00 AM)63% (Oct 16, 4:00 PM)29.51 "Hg (Oct 15, 6:00 AM)
Average57 °F90%29.91 "Hg
* Reported Oct 5 2:00 AM — Oct 20 2:00 AM, Burnaby, Weather by CustomWeather, © 2014

Note: Actual official high and low records may vary slightly from our data, if they occured in-between our weather recording intervals... More about our weather records

Advertising

Burnaby weather history for previous 24 hours

 ConditionsComfort  
Time TempWeatherWind HumidityBarometerVisibility
2:00 AM
Oct 20
57 °FDrizzle. Low clouds.9 mph94%29.67 "Hg15 mi
1:56 AM57 °FDrizzle. Mostly cloudy.12 mph94%29.67 "Hg15 mi
1:00 AM59 °FLight rain. Mostly cloudy.3 mph94%29.66 "Hg15 mi
12:00 AM57 °FRain. Mostly cloudy.3 mph100%29.66 "Hg10 mi
11:56 PM
Oct 19
57 °FRain. Mostly cloudy.3 mph100%29.66 "Hg8 mi
11:00 PM59 °FLight rain. Overcast.5 mph94%29.65 "Hg15 mi
10:00 PM59 °FLight rain. Overcast.3 mph94%29.65 "Hg15 mi
8:00 PM63 °FOvercast.5 mph77%29.64 "Hg15 mi
7:00 PM63 °FOvercast.7 mph73%29.63 "Hg15 mi
6:00 PM64 °FPartly sunny.12 mph73%29.62 "Hg20 mi
5:00 PM66 °FPartly sunny.14 mph68%29.62 "Hg20 mi
4:00 PM66 °FBroken clouds.17 mph68%29.63 "Hg20 mi
3:00 PM68 °FBroken clouds.15 mph64%29.64 "Hg20 mi
2:00 PM68 °FPartly sunny.15 mph64%29.65 "Hg30 mi
1:00 PM68 °FPartly sunny.23 mph64%29.66 "Hg30 mi
12:00 PM68 °FBroken clouds.14 mph69%29.68 "Hg20 mi
11:00 AM66 °FBroken clouds.14 mph68%29.67 "Hg20 mi
10:00 AM63 °FBroken clouds.17 mph77%29.67 "Hg20 mi
9:00 AM59 °FPartly sunny.9 mph88%29.67 "Hg20 mi
8:00 AM57 °FPassing clouds.12 mph88%29.67 "Hg20 mi
7:00 AM57 °FOvercast.9 mph88%29.68 "Hg15 mi
6:00 AM57 °FOvercast.10 mph94%29.70 "Hg15 mi
5:00 AM57 °FMostly cloudy.8 mph94%29.73 "Hg15 mi
4:00 AM59 °FOvercast.8 mph88%29.76 "Hg15 mi
3:00 AM59 °FMostly cloudy.9 mph88%29.79 "Hg15 mi
Weather by CustomWeather, © 2014

See weather overviewHow to use our weather pages